This demonstration page uses our WeatherBlox Daily Observations layout. Learn more.

Left ArrowRight Arrow

Hourly Observations for June 13, 2019

Temp ( °F °C ) Dew Point ( °F °C ) Humidity (%) Winds ( mph kmh ) Pressure ( in mb ) Visibility ( mi km ) Precip ( " mm )
12:56 am 00:56 Clear 57 14 43 6 59 59 undefined N/A 30.04 1017 10 16 0.00 0.00
1:56 am 01:56 Clear 57 14 43 6 59 59 NW 6 9 30.03 1017 10 16 0.00 0.00
2:56 am 02:56 Clear 55 13 45 7 67 67 WNW 5 7 30.03 1017 10 16 0.00 0.00
3:56 am 03:56 Clear 54 12 45 7 72 72 NNW 3 6 30.04 1017 10 16 0.00 0.00
4:56 am 04:56 Partly Cloudy 54 12 45 7 72 72 WNW 6 9 30.04 1017 10 16 0.00 0.00
5:56 am 05:56 Partly Cloudy 52 11 45 7 77 77 WNW 5 7 30.06 1018 10 16 0.00 0.00
6:56 am 06:56 Partly Cloudy 55 13 46 8 72 72 WNW 5 7 30.07 1018 10 16 0.00 0.00
7:56 am 07:56 Mostly Cloudy 63 17 46 8 56 56 Calm 30.08 1019 7 11 0.00 0.00
8:56 am 08:56 Mostly Cloudy 64 18 39 4 40 40 SE 3 6 30.09 1019 7 11 0.00 0.00
9:56 am 09:56 Partly Cloudy 68 20 37 3 33 33 SE 6 9 30.09 1019 7 11 0.00 0.00
10:56 am 10:56 Partly Cloudy 68 20 34 1 28 28 SSE 6 9 30.08 1019 7 11 0.00 0.00
11:56 am 11:56 Partly Cloudy 72 22 37 3 29 29 SSE 9 15 30.06 1018 7 11 0.00 0.00
12:56 pm 12:56 Partly Cloudy 72 22 41 5 33 33 SE 9 15 30.05 1018 7 11 0.00 0.00
1:56 pm 13:56 Partly Cloudy 73 23 43 6 33 33 SE 10 17 30.03 1017 7 11 0.00 0.00
2:56 pm 14:56 Partly Cloudy 75 24 45 7 34 34 SE 13 20 29.99 1016 7 11 0.00 0.00
3:56 pm 15:56 undefined N/A N/A N/A SSE 14 22 N/A N/A 0.00 0.00
4:56 pm 16:56 Sunny 79 26 46 8 32 32 SSE 13 20 29.94 1014 10 16 0.00 0.00
5:56 pm 17:56 Sunny 79 26 46 8 32 32 S 12 19 29.92 1013 10 16 0.00 0.00
6:56 pm 18:56 Sunny 77 25 48 9 36 36 SSE 13 20 29.91 1013 10 16 0.00 0.00
7:56 pm 19:56 undefined N/A N/A N/A SSE 14 22 N/A N/A 0.00 0.00
8:56 pm 20:56 Sunny 73 23 54 12 50 50 SSE 10 17 29.88 1012 10 16 0.00 0.00
9:56 pm 21:56 Clear 73 23 54 12 50 50 S 9 15 29.89 1012 10 16 0.00 0.00
10:56 pm 22:56 Partly Cloudy 72 22 48 9 44 44 VRB 6 9 29.90 1013 10 16 0.00 0.00
11:56 pm 23:56 Partly Cloudy 70 21 48 9 46 46 S 12 19 29.89 1012 10 16 0.00 0.00

Powered by AerisWeather